カタログに戻る

CZ-3C DEB

運用中HEO
NORAD 39345·DEBRIS·🇨🇳 China

打ち上げ Oct 31, 2010 から Xichang Satellite Launch Center

Loading…

次のパス (今後24時間)

TLE

最新Source: Space-Track

元期: Sep 14, 2026, 04:28 UTC

1 39345U 10057K   26257.18670890  .00003667  00000-0  33430-2 0  9995
2 39345  20.3061 264.3983 6743995  83.6176 343.3688  2.92683033122115

AllMySatでCZ-3C DEBをリアルタイム追跡

Download on the App Store